CanjetBLOCKVirtuelBLOCKQcBLOCKBLOCKBLOCKBLOCKBLOCKBLOCKBLOCKBLOCKBLOCKBLOCKBLOCKvolsBLOCKavecBLOCKFS-kACARS2022-08-10BLOCK03colon08am

volsBLOCKBLOCKBLOCKBLOCKBLOCKpilotesBLOCKBLOCKBLOCKBLOCKBLOCKBLOCKBLOCKBLOCKtypeBLOCKBLOCKdepBLOCKBLOCKarrBLOCKBLOCKBLOCKBLOCKBLOCKaltBLOCKBLOCKBLOCKBLOCKBLOCKgsBLOCKBLOCKBLOCKBLOCKstatut

CJA415LucBLOCKBA320CYUL-KLAX0ft0ktsarrived












BLOCKAppuyerBLOCKsurBLOCKF5BLOCKpourBLOCKactualiserBLOCKBLOCKBLOCKMiseBLOCKaBLOCKjourcolonBLOCK03colon08colon20amCanjetBLOCKvirtuelBLOCKQC

Bienvenue

Publié par Michel Ayotte le 2022-01-19

Bienvenue aux nouveaux pilotes chez Canjetvirtuel-Québec 

 

 

5 très bonnes raisons de devenir pilote | Collège iFly

Vous trouverez votre place comme pilote chez nous!


Bienvenue chez Canjetvirtuel-Q

Publié par Michel Ayotte le 2013-06-14

 

Canjetvirtuel-Québec est une compagnie aérienne virtuelle qui a été fondée par 2 passionnés de la simulation de vol.

Elle est opérée avec les Boeing 737. Exceptionnelement et pour votre plaisir tous les autres versions de Boeing et Airbus sont autorisées.

Ces appareils pouvant faire des vols cargos ou des vols passagers, que ce soit au Canada, Europe, États-Unis, Mexique, Caraïbes et autres destinations mondiales.

Vous trouverez votre place comme pilote chez nous!



Avis

Aux fins de la simulation de vol seulement. CanjetVirtuel Québec n'est en aucun cas affilié avec n'importe quelle compagnie aérienne du monde réel. CanjetVirtuel Québec est un site à but non lucratif gérée par des amateurs de simulation de vol. Toutes les images sont la propriété exclusive de leurs propriétaires respectifs.
| propulsé par phpVMS, © 2013-2020.

Notice

For flight simulation purposes only. CanjetVirtuel Quebec is in no way affiliated with any real world airline. CanjetVirtuel Quebec is a non-profit site run by flight simulation enthusiasts. All images are the sole property of their respective owners.
| powered by phpVMS, © 2013-2020.

Affiliations

Vatsim

Les statistiques du site

Nombre de pilotes: 14
Total des vols effectués: 8705
Trajets disponibles: 736
Passagers transportés: 2148786
Total des heures de vol: 29599
Distance totale (NM): 11565919
Pilotes en ligne: 0

Nouvelles

Bienvenue
01/19/2022
Bienvenue chez Canjetvirtuel-Q
06/14/2013

METAR

CYHZ 100600Z 34005KT 15SM FEW003 FEW019 BKN046 15/15 A3000 RMK SF1SC2SC4 SF TR SLP161 DENSITY ALT 500FT

CYQB 100600Z 04003KT 15SM BKN024 16/13 A3006 RMK SC7 SLP183 DENSITY ALT 300FT

CYUL 100600Z 32002KT 15SM FEW028 OVC050 17/15 A3005 RMK SC1SC8 SC TR SLP179 DENSITY ALT 300FT

CYYZ 100600Z VRB02KT 15SM FEW042 18/15 A3010 RMK SC1 SLP195 DENSITY ALT 900FT